Kihnu Airfield


Codes: EEKU/
Name: Kihnu Airfield
City: Saarekula
Country: Estonia
Elevation: 10 ft.
Website:
Wikipedia:

Photos at Kihnu Airfield


   Photos courtesy of SpottingLog. You can add your own sightings and photos by signing up for a free trial today.



No photos found.

Weather at Kihnu Airfield


Time (UTC)DescriptionTempratureWindCloud coverageVisibilityPressureHumidity
13-Jun-2024 03:00Clear Sky10°C16 mph, SW0%10000m1014hPa85%
13-Jun-2024 06:00Clear Sky11°C18 mph, SW1%10000m1014hPa83%
13-Jun-2024 09:00Clear Sky12°C13 mph, SW3%10000m1015hPa78%
13-Jun-2024 12:00Clear Sky14°C7 mph, SW3%10000m1016hPa74%
13-Jun-2024 15:00Clear Sky14°C0 mph, SW9%10000m1016hPa71%
13-Jun-2024 18:00Scattered Clouds13°C2 mph, NW46%10000m1015hPa75%
13-Jun-2024 21:00Overcast Clouds13°C7 mph, NW100%10000m1016hPa76%
14-Jun-2024 00:00Overcast Clouds12°C4 mph, N100%10000m1016hPa76%
14-Jun-2024 03:00Light Rain12°C7 mph, SW100%10000m1016hPa81%
14-Jun-2024 06:00Light Rain13°C9 mph, SW97%10000m1016hPa75%
14-Jun-2024 09:00Clear Sky13°C9 mph, SW6%10000m1017hPa73%
14-Jun-2024 12:00Clear Sky13°C7 mph, SW3%10000m1017hPa67%
14-Jun-2024 15:00Clear Sky14°C9 mph, W7%10000m1017hPa68%
14-Jun-2024 18:00Scattered Clouds13°C7 mph, W33%10000m1017hPa73%
14-Jun-2024 21:00Broken Clouds13°C7 mph, W67%10000m1017hPa79%
15-Jun-2024 00:00Broken Clouds13°C7 mph, W57%10000m1017hPa78%
15-Jun-2024 03:00Few Clouds12°C4 mph, NW20%10000m1018hPa76%
15-Jun-2024 06:00Few Clouds13°C2 mph, SW13%10000m1018hPa69%
15-Jun-2024 09:00Clear Sky14°C2 mph, SW8%10000m1018hPa67%
15-Jun-2024 12:00Few Clouds15°C2 mph, SW12%10000m1018hPa61%
15-Jun-2024 15:00Few Clouds16°C2 mph, NE20%10000m1017hPa57%
15-Jun-2024 18:00Scattered Clouds15°C9 mph, E46%10000m1016hPa67%
15-Jun-2024 21:00Overcast Clouds15°C9 mph, E100%10000m1016hPa70%
16-Jun-2024 00:00Overcast Clouds15°C11 mph, SE100%10000m1016hPa81%
16-Jun-2024 03:00Overcast Clouds15°C13 mph, SE100%10000m1017hPa82%
16-Jun-2024 06:00Overcast Clouds15°C13 mph, SE100%10000m1017hPa80%
16-Jun-2024 09:00Overcast Clouds16°C11 mph, S100%10000m1017hPa77%
16-Jun-2024 12:00Overcast Clouds17°C9 mph, SW100%10000m1016hPa70%
16-Jun-2024 15:00Overcast Clouds17°C4 mph, SW100%10000m1016hPa71%
16-Jun-2024 18:00Overcast Clouds17°C4 mph, SE100%10000m1016hPa71%
16-Jun-2024 21:00Overcast Clouds17°C2 mph, SE100%10000m1016hPa72%
17-Jun-2024 00:00Overcast Clouds16°C2 mph, S100%10000m1016hPa73%
17-Jun-2024 03:00Overcast Clouds16°C2 mph, SE100%10000m1016hPa77%
17-Jun-2024 06:00Overcast Clouds16°C2 mph, W99%10000m1017hPa77%
17-Jun-2024 09:00Broken Clouds17°C4 mph, W67%10000m1017hPa77%
17-Jun-2024 12:00Broken Clouds17°C7 mph, NW68%10000m1018hPa79%
17-Jun-2024 15:00Few Clouds18°C9 mph, NW12%10000m1017hPa77%
17-Jun-2024 18:00Clear Sky17°C9 mph, NW6%10000m1017hPa78%
17-Jun-2024 21:00Clear Sky16°C7 mph, N0%10000m1018hPa79%
18-Jun-2024 00:00Clear Sky15°C7 mph, NE2%10000m1018hPa93%